Temp
-18 -18 -18 -18 -18 -18 -18 -18 -18 -18 -18 -18 -18 -18 -18 -18 -18 -18 -18 -18 -18 -17 -17 -17 -17 -17 -17 -17 -17 -17 -17 -17 -17 -17 -17 -16 -16 -16
-18 -18 -18 -18 -18 -18 -19 -19 -19 -18 -19 -19 -19 -19 -19 -19 -19 -18 -18 -18 -18 -18 -18 -18 -18 -18 -18 -18 -18 -18 -18 -17 -17 -17 -17 -17 -16 -16
-19 -19 -19 -19 -19 -19 -19 -19 -19 -18 -18 -19 -19 -19 -19 -19 -18 -18 -18 -18 -19 -19 -19 -19 -18 -18 -19 -18 -18 -18 -18 -18 -18 -17 -17 -17 -17 -16
-19 -19 -19 -19 -19 -19 -19 -19 -19 -19 -18 -19 -19 -19 -19 -19 -19 -19 -19 -19 -19 -19 -19 -19 -19 -19 -19 -19 -19 -19 -19 -18 -18 -18 -17 -17 -17 -17
-19 -19 -19 -19 -19 -19 -19 -19 -19 -19 -19 -19 -19 -19 -19 -19 -19 -19 -19 -19 -19 -19 -19 -19 -19 -19 -19 -19 -20 -19 -19 -19 -19 -18 -18 -17 -17 -17
-19 -19 -20 -20 -20 -20 -20 -20 -20 -20 -20 -20 -20 -20 -20 -20 -20 -20 -20 -20 -20 -20 -20 -20 -20 -20 -19 -20 -20 -19 -19 -19 -19 -19 -19 -18 -17 -17
-20 -20 -20 -20 -20 -21 -21 -21 -21 -21 -21 -21 -21 -21 -21 -21 -21 -21 -21 -21 -21 -21 -21 -21 -21 -20 -20 -20 -20 -20 -20 -20 -19 -18 -18 -18 -18 -17
-20 -20 -20 -21 -21 -21 -21 -21 -21 -21 -22 -21 -22 -21 -21 -21 -21 -22 -22 -22 -21 -22 -21 -21 -21 -21 -21 -21 -21 -21 -21 -21 -20 -19 -19 -19 -19 -18
-21 -21 -21 -22 -22 -22 -22 -22 -22 -22 -22 -22 -22 -22 -22 -23 -23 -23 -23 -22 -22 -23 -23 -22 -22 -22 -22 -22 -22 -22 -21 -21 -21 -21 -20 -20 -20 -19
-22 -22 -22 -22 -23 -23 -23 -23 -23 -23 -24 -24 -24 -24 -24 -24 -25 -25 -24 -24 -24 -24 -24 -24 -24 -24 -23 -24 -23 -23 -23 -23 -22 -22 -21 -21 -21 -20
-23 -23 -23 -24 -24 -24 -25 -25 -25 -25 -25 -26 -26 -26 -26 -26 -26 -26 -26 -26 -26 -26 -26 -26 -26 -25 -25 -25 -24 -24 -24 -24 -23 -23 -23 -22 -22 -21
-25 -25 -25 -26 -26 -26 -26 -26 -26 -26 -27 -27 -27 -27 -27 -27 -27 -27 -27 -27 -27 -28 -28 -27 -27 -27 -27 -26 -26 -26 -26 -25 -25 -24 -24 -24 -23 -22
-27 -27 -27 -27 -27 -28 -28 -27 -28 -28 -28 -28 -29 -29 -29 -29 -29 -29 -29 -28 -28 -28 -29 -28 -28 -28 -28 -28 -28 -27 -27 -27 -26 -26 -25 -25 -24 -23
-28 -29 -29 -29 -29 -29 -29 -29 -29 -29 -29 -29 -30 -30 -30 -30 -30 -30 -29 -29 -29 -29 -30 -29 -30 -29 -29 -29 -29 -29 -28 -28 -28 -28 -27 -26 -26 -25
-30 -30 -30 -30 -30 -30 -30 -30 -30 -29 -30 -30 -31 -31 -31 -31 -31 -30 -30 -30 -30 -30 -30 -30 -30 -30 -30 -30 -30 -30 -30 -30 -30 -29 -29 -28 -27 -26
-31 -31 -30 -30 -30 -30 -30 -30 -31 -30 -31 -31 -32 -32 -32 -32 -31 -31 -32 -31 -31 -30 -31 -31 -31 -31 -31 -31 -31 -31 -31 -31 -30 -30 -30 -30 -29 -29
-31 -31 -31 -30 -30 -30 -30 -31 -32 -32 -32 -33 -33 -33 -32 -32 -32 -32 -32 -31 -31 -31 -31 -31 -32 -31 -31 -31 -31 -31 -31 -31 -31 -31 -31 -31 -31 -30
-32 -31 -31 -31 -31 -31 -31 -32 -33 -33 -33 -33 -33 -33 -33 -32 -32 -33 -32 -32 -32 -31 -32 -32 -32 -31 -31 -32 -31 -31 -31 -32 -32 -32 -32 -32 -31 -31
-32 -32 -32 -32 -32 -32 -32 -33 -34 -34 -34 -33 -33 -33 -33 -33 -33 -33 -33 -33 -32 -32 -32 -32 -32 -32 -32 -32 -32 -32 -32 -33 -33 -33 -33 -32 -32 -32
-33 -33 -33 -33 -33 -33 -33 -34 -35 -34 -34 -34 -34 -34 -33 -33 -33 -33 -33 -33 -32 -32 -32 -32 -32 -32 -32 -32 -32 -33 -33 -33 -33 -33 -33 -33 -33 -32
-35 -35 -35 -34 -34 -34 -35 -36 -35 -35 -35 -34 -34 -34 -34 -33 -33 -33 -33 -33 -33 -32 -32 -33 -33 -32 -33 -33 -33 -33 -34 -34 -34 -34 -34 -34 -34 -34
-36 -36 -36 -36 -35 -36 -36 -36 -36 -35 -35 -35 -34 -34 -34 -34 -34 -34 -34 -34 -33 -32 -33 -33 -33 -33 -34 -34 -34 -34 -34 -35 -34 -34 -34 -34 -34 -34
-38 -38 -37 -37 -37 -37 -37 -36 -36 -36 -35 -35 -35 -35 -34 -34 -34 -34 -34 -34 -33 -33 -33 -33 -34 -34 -34 -34 -35 -35 -35 -35 -35 -35 -35 -35 -35 -35
Height
5750 5750 5750 5751 5750 5750 5750 5751 5751 5751 5751 5750 5748 5748 5747 5747 5747 5747 5746 5745 5745 5743 5742 5741 5740 5739 5737 5735 5734 5733 5732 5731 5730 5728 5727 5726 5726 5725
5738 5738 5738 5738 5738 5738 5738 5738 5738 5738 5739 5738 5737 5736 5736 5735 5735 5735 5735 5735 5734 5733 5732 5731 5730 5729 5728 5726 5725 5724 5723 5723 5721 5720 5719 5719 5718 5717
5727 5727 5726 5726 5726 5726 5725 5725 5724 5724 5726 5726 5725 5723 5723 5722 5722 5722 5723 5723 5722 5722 5721 5720 5720 5719 5718 5716 5715 5715 5714 5713 5712 5711 5711 5710 5710 5710
5713 5713 5713 5712 5712 5711 5711 5711 5710 5709 5711 5711 5711 5710 5709 5709 5709 5708 5709 5709 5709 5709 5709 5709 5709 5708 5707 5706 5705 5704 5703 5703 5702 5702 5701 5701 5701 5701
5699 5699 5698 5698 5697 5696 5696 5695 5695 5694 5696 5695 5695 5695 5694 5694 5694 5694 5694 5694 5695 5695 5695 5695 5695 5695 5695 5694 5693 5692 5692 5691 5692 5691 5690 5690 5691 5691
5684 5684 5683 5683 5681 5681 5680 5679 5679 5678 5679 5679 5679 5679 5679 5677 5678 5678 5679 5679 5679 5680 5680 5680 5680 5680 5680 5680 5679 5679 5678 5678 5678 5679 5679 5679 5680 5681
5667 5667 5666 5665 5664 5663 5662 5662 5661 5660 5660 5661 5661 5661 5661 5660 5661 5662 5661 5662 5663 5663 5663 5663 5664 5664 5664 5664 5665 5664 5664 5663 5664 5665 5666 5666 5667 5668
5649 5648 5646 5645 5643 5642 5641 5641 5640 5640 5639 5640 5640 5641 5642 5643 5643 5642 5644 5644 5646 5644 5646 5647 5646 5647 5648 5648 5648 5648 5648 5649 5649 5650 5651 5652 5653 5655
5627 5626 5625 5623 5620 5619 5619 5618 5618 5617 5617 5618 5619 5621 5622 5621 5622 5623 5623 5624 5627 5626 5627 5629 5628 5630 5631 5631 5630 5631 5631 5632 5633 5634 5635 5637 5638 5640
5604 5603 5602 5601 5597 5594 5594 5593 5594 5594 5595 5595 5596 5597 5598 5599 5600 5601 5602 5603 5606 5608 5608 5609 5610 5612 5613 5612 5613 5613 5614 5616 5617 5617 5619 5620 5621 5623
5579 5578 5576 5575 5573 5570 5569 5569 5569 5571 5570 5571 5573 5575 5577 5578 5580 5582 5583 5585 5587 5589 5589 5592 5593 5593 5596 5596 5596 5597 5597 5598 5599 5600 5601 5602 5603 5605
5556 5553 5552 5551 5549 5546 5545 5546 5547 5549 5548 5549 5552 5553 5556 5558 5560 5562 5565 5567 5570 5573 5572 5576 5577 5577 5579 5579 5580 5580 5580 5580 5582 5583 5584 5584 5585 5587
5532 5531 5528 5526 5526 5524 5521 5524 5526 5525 5527 5529 5531 5534 5537 5539 5542 5544 5548 5550 5553 5556 5556 5559 5560 5561 5563 5564 5564 5563 5563 5564 5565 5565 5566 5566 5567 5569
5509 5509 5507 5503 5503 5503 5501 5502 5504 5505 5508 5511 5513 5516 5519 5522 5525 5527 5530 5533 5537 5539 5541 5543 5545 5547 5548 5549 5549 5549 5548 5548 5548 5548 5548 5548 5548 5550
5487 5488 5486 5484 5484 5483 5484 5482 5482 5486 5491 5493 5496 5500 5503 5505 5508 5512 5515 5517 5521 5525 5527 5529 5532 5533 5534 5534 5535 5535 5535 5535 5534 5534 5533 5532 5531 5532
5465 5468 5469 5468 5466 5467 5466 5465 5463 5468 5473 5475 5479 5483 5486 5489 5493 5495 5499 5503 5507 5510 5513 5516 5518 5520 5521 5523 5523 5524 5523 5523 5521 5520 5518 5517 5516 5515
5447 5449 5450 5452 5452 5450 5449 5448 5447 5450 5454 5459 5462 5466 5470 5474 5477 5481 5485 5489 5492 5496 5500 5503 5505 5508 5509 5511 5512 5512 5512 5511 5510 5508 5505 5504 5503 5502
5428 5430 5433 5434 5434 5432 5432 5431 5432 5434 5438 5443 5447 5451 5456 5460 5463 5468 5472 5476 5480 5484 5487 5490 5493 5495 5498 5499 5501 5500 5500 5500 5499 5497 5495 5493 5492 5491
5409 5411 5414 5417 5417 5415 5415 5416 5418 5421 5425 5429 5433 5437 5442 5446 5451 5455 5459 5463 5468 5471 5475 5478 5481 5484 5486 5488 5489 5489 5490 5489 5489 5488 5486 5485 5483 5482
5388 5389 5393 5397 5398 5398 5400 5401 5406 5408 5411 5416 5420 5424 5429 5433 5438 5442 5446 5451 5455 5459 5463 5466 5470 5473 5475 5476 5478 5479 5479 5480 5479 5479 5479 5477 5475 5473
5367 5368 5372 5376 5380 5381 5384 5387 5391 5395 5398 5402 5406 5411 5417 5421 5426 5430 5434 5438 5443 5448 5452 5455 5458 5462 5464 5466 5467 5469 5470 5471 5471 5472 5472 5470 5468 5465
5343 5347 5351 5355 5361 5365 5369 5372 5376 5380 5384 5389 5394 5399 5404 5408 5413 5417 5422 5427 5432 5435 5438 5443 5447 5450 5454 5456 5457 5459 5460 5461 5463 5463 5463 5463 5462 5460
5319 5326 5332 5337 5343 5348 5353 5357 5362 5365 5371 5376 5381 5386 5391 5396 5400 5404 5410 5415 5420 5423 5428 5433 5436 5440 5443 5445 5447 5449 5451 5452 5453 5454 5452 5453 5452 5450
Wind_Speed
41 41 41 41 42 41 41 41 42 42 42 43 45 45 45 45 45 44 42 40 39 39 38 37 36 35 35 35 35 35 35 35 35 36 37 36 36 34
45 45 46 46 46 45 46 46 46 46 45 46 47 49 49 49 49 48 46 45 43 43 42 41 41 39 38 37 37 36 35 35 35 36 36 36 37 35
48 50 50 50 50 51 52 52 53 52 51 51 51 52 52 53 52 51 50 48 47 46 46 45 44 44 42 41 40 40 39 38 37 37 37 36 36 37
52 54 54 55 56 57 57 57 57 57 56 56 56 56 56 55 54 53 52 51 51 51 50 48 48 48 48 47 47 45 44 43 42 41 40 39 38 35
55 57 58 58 59 59 59 59 60 61 60 60 59 60 58 57 57 57 56 56 55 54 53 52 52 51 50 51 51 51 50 48 47 45 44 43 41 39
60 61 62 63 63 64 65 65 65 66 65 65 64 64 63 63 63 62 61 60 59 58 58 57 56 55 55 54 54 55 55 53 52 49 49 48 45 42
64 65 66 67 68 69 69 69 69 69 69 68 68 67 66 66 66 64 63 62 62 61 61 60 59 59 59 58 58 58 58 58 57 53 51 51 51 48
70 71 72 73 74 75 75 75 74 74 74 73 73 72 72 70 69 68 66 65 64 64 63 63 63 62 62 61 61 61 61 61 60 58 55 52 52 51
74 75 75 76 78 79 79 79 79 78 78 78 77 76 74 73 72 71 70 70 67 66 65 64 64 63 63 62 62 62 63 62 62 60 58 57 55 53
79 80 80 81 81 82 82 83 82 81 80 79 78 77 75 75 72 71 70 70 66 65 63 63 63 63 64 63 63 63 63 63 63 63 61 59 58 57
80 80 80 79 78 78 78 78 78 78 77 77 75 74 73 71 71 68 69 66 65 63 62 61 60 62 61 59 63 63 63 63 62 62 61 59 59 60
77 78 77 75 74 74 75 75 75 74 73 72 71 70 69 68 68 65 65 64 62 60 59 59 58 60 62 61 59 59 60 60 61 63 63 63 63 63
75 74 72 72 71 70 70 70 69 69 69 67 66 65 64 62 61 59 57 58 56 56 57 59 58 59 58 56 55 56 56 54 55 57 58 60 62 65
72 69 66 65 64 64 64 64 65 66 65 65 63 62 60 57 56 54 53 53 52 51 53 54 52 50 50 53 53 52 50 49 51 52 54 57 59 61
63 60 58 58 57 58 59 60 62 62 61 62 61 60 55 54 53 52 51 50 48 47 48 50 52 48 45 43 44 44 44 47 49 51 53 54 55 57
59 55 53 52 54 54 56 57 59 58 57 58 57 54 54 53 52 51 49 50 49 47 48 46 42 41 41 42 41 42 42 43 47 49 49 49 49 49
58 55 54 50 50 52 54 54 54 53 53 54 54 53 51 50 47 48 49 47 41 40 41 41 39 40 42 38 38 39 41 41 41 40 41 41 40 39
59 57 55 52 50 51 52 50 47 47 48 48 48 48 47 45 43 43 41 39 40 41 40 37 40 39 35 33 34 36 36 36 36 36 36 36 35 34
62 60 57 53 51 50 50 47 42 41 41 42 43 44 44 42 42 43 42 42 43 42 38 39 35 30 29 32 32 32 32 33 34 33 31 31 32 32
64 62 58 53 51 49 47 44 41 42 43 41 44 46 42 40 40 40 42 43 44 41 39 36 31 30 31 30 30 30 30 30 29 28 27 28 30 33
64 61 57 52 48 48 44 44 43 45 45 45 45 44 42 43 44 43 42 39 41 42 38 34 32 30 31 30 30 29 27 26 26 26 26 25 24 27
62 59 54 51 48 46 43 44 45 45 47 47 47 46 45 46 44 40 35 36 44 42 38 35 34 33 32 31 30 27 26 26 27 27 26 24 22 21
65 60 53 53 49 45 45 48 49 50 48 48 48 47 48 46 44 38 34 41 47 43 39 36 35 35 34 32 30 28 27 26 25 24 25 24 25 26
Wind_Direction
274 275 275 276 278 278 277 277 278 277 277 279 280 281 283 284 286 287 288 288 288 286 285 284 284 285 286 286 286 286 286 284 284 285 284 285 286 287
273 274 276 277 278 278 279 279 279 277 277 277 280 281 283 284 285 287 287 287 287 287 286 286 284 283 283 283 285 287 286 285 284 283 284 283 283 283
275 276 277 278 278 278 279 279 279 277 276 276 277 279 280 281 283 285 287 287 286 284 285 285 284 284 284 283 282 282 283 283 284 284 283 283 282 281
273 274 275 275 276 277 278 279 279 279 278 278 278 278 277 279 280 280 280 280 281 282 282 282 281 280 280 281 281 282 282 281 282 283 283 283 283 282
275 276 276 277 277 277 277 277 277 277 277 276 276 277 278 278 278 278 278 279 278 278 279 278 278 278 279 279 278 278 279 279 281 281 280 279 281 281
276 276 276 276 276 275 275 275 275 274 274 274 274 274 275 275 275 275 276 277 278 278 278 278 276 276 275 276 277 277 279 279 278 277 279 278 278 276
276 276 276 276 276 276 275 275 274 274 274 273 273 273 272 272 273 274 274 275 275 275 275 275 274 273 274 274 273 274 275 277 278 277 276 276 276 275
277 277 277 277 276 276 275 275 274 274 273 273 273 273 273 274 273 273 273 272 272 272 272 272 272 272 273 273 273 273 274 275 276 276 276 277 274 272
278 278 277 276 275 274 273 273 272 271 271 271 271 272 271 270 270 271 271 270 269 270 269 269 269 269 269 270 270 270 272 273 275 277 277 277 275 273
279 278 278 276 275 273 272 271 270 270 269 269 268 267 268 268 268 268 268 268 269 269 267 268 267 268 269 270 270 270 271 273 275 275 276 276 276 274
280 278 277 276 274 272 272 271 271 270 269 268 268 268 267 267 267 268 269 270 270 269 269 268 269 270 271 273 273 273 274 275 276 276 276 276 275 274
277 277 276 275 274 273 271 270 269 269 268 268 267 267 267 266 267 266 268 268 268 267 266 268 271 271 275 277 278 277 278 278 277 276 276 276 276 275
277 276 276 274 272 271 270 268 267 265 265 265 266 266 266 266 266 266 266 267 267 266 266 269 270 273 276 277 277 278 280 279 278 277 277 277 276 275
278 277 276 274 272 270 269 268 266 265 264 264 264 264 265 264 264 264 262 264 265 264 263 267 269 271 273 276 277 278 278 278 278 280 280 280 279 277
277 275 273 273 273 272 271 269 267 265 264 263 263 264 263 262 262 262 263 261 260 259 257 263 267 271 273 273 275 276 276 279 281 283 284 284 282 280
276 273 271 272 275 274 273 270 268 268 263 260 259 258 258 259 259 259 255 256 261 260 257 266 267 269 271 273 271 272 275 280 286 287 285 284 283 281
275 273 273 275 276 275 273 270 266 264 260 258 256 256 257 257 254 251 255 261 258 255 254 262 265 264 264 262 268 274 278 283 284 284 285 285 284 283
275 273 273 275 277 276 274 269 263 260 258 255 254 253 255 254 254 254 255 253 250 251 255 258 259 255 253 263 267 274 277 283 284 283 283 283 284 283
274 273 272 272 273 273 270 266 259 257 258 253 251 251 250 250 254 254 252 250 253 249 252 255 245 249 259 264 267 272 280 283 283 281 279 280 282 283
272 271 270 269 268 267 263 258 250 252 254 255 252 249 246 247 248 248 249 247 244 241 247 241 243 249 255 262 268 274 279 278 274 274 277 281 285 288
268 267 266 264 260 258 253 251 251 251 252 251 250 245 247 249 248 245 242 242 246 242 237 237 244 250 254 259 264 271 272 268 270 272 276 280 285 289
262 260 259 256 252 246 246 249 249 248 248 249 249 249 250 244 238 233 239 249 244 234 231 238 244 246 250 254 259 263 262 264 271 275 278 281 285 292
257 255 252 249 247 240 240 242 243 243 244 245 244 243 241 234 230 228 237 248 240 233 233 238 242 245 247 250 252 252 254 263 270 279 287 295 298 302